Weather History for KTYS - August, 2013

Change the Weather History Date:

Saturday, August 10, 2013

  Actual Average Record
Temperature  
Mean Temperature 80 °F 78 °F  
Max Temperature 89 °F 88 °F 100 °F (1980)
Min Temperature 71 °F 69 °F 54 °F (1879)
Degree Days  
Heating Degree Days 0 0  
Month to date heating degree days 0 0  
Since 1 June heating degree days 0 4  
Since 1 July heating degree days 0 0  
Cooling Degree Days 15 13  
Month to date cooling degree days 126 130  
Year to date cooling degree days 952 1014  
Since 1 June cooling degree days 796 852  
Growing Degree Days 30 (Base 50)    
Moisture  
Dew Point 72 °F    
Average Humidity 82    
Maximum Humidity 100    
Minimum Humidity 63    
Precipitation  
Precipitation 0.33 in 0.12 in 2.10 in (1920)
Month to date precipitation 0.99 1.24  
Year to date precipitation 49.16 31.57  
Snow  
Snow 0.00 in 0.00 in - ()
Month to date snowfall 0.0 0.0  
Since 1 June snowfall 0.0 0.0  
Since 1 July snowfall 0.0 0.0  
Snow Depth 0.00 in    
Sea Level Pressure  
Sea Level Pressure 30.08 in    
Wind  
Wind Speed 4 mph (WSW)    
Max Wind Speed 16 mph    
Max Gust Speed 20 mph    
Visibility 8 miles    
Events Rain , Thunderstorm    
T = Trace of Precipitation, MM = Missing Value Source: NWS Daily Summary

Daily Weather History Graph

Daily Weather History Graph

Search for Another Location

Airport or City:

Trip Planner

Search our weather history database for the weather conditions in past years. The results will help you decide how hot, cold, wet, or windy it might be!

Date:

Astronomy

Aug. 10, 2013 Rise Set
Actual Time 6:50 AM EDT 8:31 PM EDT
Civil Twilight 6:23 AM EDT 8:58 PM EDT
Nautical Twilight 5:50 AM EDT 9:31 PM EDT
Astronomical Twilight 5:15 AM EDT 10:06 PM EDT
Moon 10:26 AM EDT (8/10) 10:22 PM EDT (8/10)
Length of Visible Light 14h 34m
Length of Day
13h 40m
Waxing Crescent, 14% of the Moon is Illuminated
Aug 10
Waxing Crescent
Aug 14
First Quarter
Aug 20
Full
Aug 28
Last Quarter
Sep 5
New

Hourly Weather History & Observations

Time (EDT) Temp. Heat Index Dew Point Humidity Pressure Visibility Wind Dir Wind Speed Gust Speed Precip Events Conditions
12:53 AM 75.0 °F - 73.0 °F 94% 30.05 in 10.0 mi Calm Calm - 0.01 in   Mostly Cloudy
1:53 AM 73.9 °F - 73.0 °F 97% 30.04 in 9.0 mi Calm Calm - N/A   Overcast
2:53 AM 75.0 °F - 73.0 °F 94% 30.05 in 10.0 mi Calm Calm - N/A   Scattered Clouds
3:53 AM 73.9 °F - 72.0 °F 93% 30.05 in 9.0 mi West 4.6 mph - N/A   Scattered Clouds
4:53 AM 73.0 °F - 71.1 °F 93% 30.04 in 8.0 mi WSW 3.5 mph - N/A   Scattered Clouds
5:53 AM 73.0 °F - 72.0 °F 96% 30.05 in 10.0 mi WSW 3.5 mph - N/A   Mostly Cloudy
6:53 AM 73.0 °F - 72.0 °F 96% 30.06 in 9.0 mi SW 3.5 mph - N/A   Mostly Cloudy
7:53 AM 75.0 °F - 72.0 °F 90% 30.08 in 10.0 mi West 3.5 mph - N/A   Mostly Cloudy
8:53 AM 75.9 °F - 73.0 °F 91% 30.09 in 10.0 mi West 3.5 mph - N/A   Mostly Cloudy
9:53 AM 80.1 °F 84.5 °F 73.9 °F 81% 30.10 in 10.0 mi WSW 4.6 mph - N/A   Scattered Clouds
10:53 AM 82.0 °F 87.4 °F 73.0 °F 74% 30.10 in 10.0 mi WSW 9.2 mph - N/A   Scattered Clouds
11:53 AM 84.0 °F 90.2 °F 73.0 °F 69% 30.10 in 10.0 mi West 8.1 mph - N/A   Mostly Cloudy
12:53 PM 84.9 °F 91.4 °F 73.0 °F 67% 30.08 in 10.0 mi West 4.6 mph - N/A   Scattered Clouds
2:53 PM 88.0 °F 95.6 °F 73.0 °F 61% 30.05 in 10.0 mi WSW 9.2 mph - N/A   Mostly Cloudy
3:48 PM 86.0 °F 91.8 °F 71.6 °F 62% 30.07 in 10.0 mi SW 9.2 mph - N/A Thunderstorm Thunderstorm
3:53 PM 86.0 °F 92.2 °F 72.0 °F 63% 30.03 in 10.0 mi WSW 9.2 mph - N/A Thunderstorm Thunderstorm
4:53 PM 75.0 °F - 72.0 °F 90% 30.09 in 5.0 mi SW 8.1 mph - 0.19 in Rain , Thunderstorm Thunderstorms and Rain
4:55 PM 75.2 °F - 71.6 °F 89% 30.12 in 1.8 mi SW 10.4 mph - 0.01 in Rain , Thunderstorm Heavy Thunderstorms and Rain
5:14 PM 73.4 °F - 71.6 °F 94% 30.12 in 4.0 mi Calm Calm - 0.09 in Rain , Thunderstorm Light Thunderstorms and Rain
5:26 PM 73.4 °F - 71.6 °F 94% 30.11 in 5.0 mi ESE 9.2 mph - 0.10 in Rain , Thunderstorm Light Thunderstorms and Rain
5:36 PM 71.6 °F - 71.6 °F 100% 30.12 in 4.0 mi East 9.2 mph 19.6 mph 0.13 in Rain , Thunderstorm Light Thunderstorms and Rain
5:53 PM 72.0 °F - 70.0 °F 93% 30.09 in 10.0 mi NE 3.5 mph - 0.14 in Rain Light Rain
6:53 PM 73.0 °F - 71.1 °F 93% 30.09 in 10.0 mi SSE 3.5 mph - 0.00 in   Overcast
7:53 PM 73.9 °F - 72.0 °F 93% 30.08 in 10.0 mi ENE 3.5 mph - N/A   Overcast
8:53 PM 73.0 °F - 71.1 °F 93% 30.09 in 10.0 mi Calm Calm - N/A   Scattered Clouds
9:53 PM 73.0 °F - 71.1 °F 93% 30.09 in 10.0 mi NNE 3.5 mph - N/A   Partly Cloudy
10:53 PM 72.0 °F - 70.0 °F 93% 30.10 in 10.0 mi Calm Calm - N/A   Partly Cloudy
11:45 PM 71.6 °F - 69.8 °F 94% 30.13 in 6.0 mi Calm Calm - N/A   Scattered Clouds
11:53 PM 72.0 °F - 70.0 °F 93% 30.10 in 3.0 mi North 3.5 mph - N/A   Scattered Clouds